Location: Frankfurt+am+Main
(50.1100°N, 8.4815°E)
Time: 03:15:11
(UTC+02:00)

ISS - Pass Details

Date: 05 January 2018
Orbit: 402 x 408 km, 51.6° (Epoch: 16 July)

Event Time Altitude Azimuth Distance (km) Brightness Sun altitude
Exits shadow 04:46:14 - 76° (ENE) 1,666 0.1 -33.9°
Enters shadow 05:43:29 -66° 258° (WSW) 12,067 3.6 -24.7°
Maximum altitude 06:19:12 67° 355° (N) 457 -3.8 -19.1°
